Tracking 31027 objects as of 19-Jul-2025
HD Live streaming from Space Station
objects crossing your sky now

FENGYUN 1C DEB

Track FENGYUN 1C DEB now!
10-day predictions


NORAD ID: 33689
Int'l Code: 1999-025DGA
Perigee: 719.5 km
Apogee: 787.7 km
Inclination: 99.6 °
Period: 99.7 minutes
Semi major axis: 7124 km
RCS: 0.0143 m2 (small)
Launch date: May 10, 1999
Source: People's Republic of China (PRC)
Launch site: Taiyaun Space Center, China (TSC)

Note: This is SATELLITE DEBRIS
Your satellite tracking list
SUPERVIEW-1 03
Track 1 satellite(s)




NASA's NSSDC Master Catalog

Two Line Element Set (TLE):
1 33689U 99025DGA 25199.73759444  .00002022  00000-0  60344-3 0  9999
2 33689  99.5593 188.8591 0047889 219.9793 320.0387 14.43652544902469
Source of the keplerian elements: AFSPC